Showing default

YAOGAN-39 01C, 57731

Orbit data source: Space-Track

YAOGAN-39 01C, 57731 is a payload satellite owned by PLA GAD (CN) in LEO that was launched on Thu, 31 Aug 2023 UTC via a CHANG ZHENG 2D launch vehicle from the Xichang Space Center, China (XSC). Payload-class satellites include a variety of spacecraft equipped with specific instruments for various scientific and technological missions. These include communications satellites like Starlink; space stations such as the ISS; scientific satellites like the Hubble; Earth observation satellites from companies like Planet Labs, Umbra, and HawkEye 360; GPS; miniature CubeSats for education and research; and military/defense satellites.

Loading next visibility...
Identifier
57731, 2023-130E
Orbit
LEO
Country
Flag of CNCN / PRC
Related business
Manufacturer
DFH
Mission
Operational Defense Sigint
Bus & Motor
Unknown
Mass
~300 kg wet, ~300 kg dry
Launch date (UTC)
2023-08-31 (2 years ago)
Launch vehicle
CHANG ZHENG 2D
Launch site
Xichang Space Center, China (XSC)
Object type
Payload
Rocket body
Debris
Shape & HBR
Box + 2 Pan, 2.5 m
Radar Cross Section
11.063 m², Large (>1 m²)

Expand to show TLE details & history
Last TLE update: 19 hours ago

TLE from 19 hours ago
0 YAOGAN-39 01C
1 57731U 23130E   25259.66019344  .00005975  00000-0  29108-3 0  9997
2 57731  34.9943  57.3053 0001748  63.2098 296.8794 15.17702634113891
Epoch: 2025-09-16T15:50Z
TLE epoch observation values (Epoch: 2025-09-16T15:50:40.713Z)
Latitude
0.00002°
Longitude
-176.21162°
Altitude
511.15 km
Speed
7.611 km/s
True Right ascension
03h 49m 13s
True Declination
0° 00' 00"
Sunlit
Object was in full shadow at epoch
Visualization orbit readout
Latitude
Unknown
Longitude
Unknown
Altitude
Unknown
Speed
Unknown
Apparent Right ascension
Unknown
Apparent Declination
Unknown
Sunlit
N/A
Visualization observer readout
Local Sidereal Time
03:22:03
Azimuth
Unknown
Elevation
Unknown
Doppler factor
Unknown
Orbital elements
Apogee altitude
517.234 km
Perigee altitude
514.824 km
Semi-major axis
6,894.166 km
Eccentricity
0.00017
Inclination
34.9943°
RAAN
57.3053°
Arg. of periapsis
63.2098°
True anomaly
296.86153°
Mean anomaly
296.8794°
Eccentric anomaly
296.87047°
Mean motion
3.79158 °/min
Orbital period
94.95 mins
BSTAR
0.00029108
Loading maneuver chart data...
Computing Atmospheric mass density...
Loading historical data...
Loading historical data...
Loading historical data...
Loading historical data...
Loading historical data...
Loading historical data...
Loading historical data...
Other satellites on launch #130 in the year 2023 (2023-08-31 UTC)

Documentation

Showing up to 5 results
|